Location: Bucquoy
(50.1391°N, 2.7097°E)
Time: 02:39:52
(UTC+00:00)

Cosmos 2181 Rocket - Pass Details

Date: 06 May 2021
Orbit: 952 x 1014 km, 82.9° (Epoch: 22 June)

Event Time Altitude Azimuth Distance (km) Brightness Sun altitude
Exits shadow 00:14:44 35° 234° (SW) 1,516 4.6 -23.0°
Maximum altitude 00:16:57 50° 286° (WNW) 1,214 4.5 -23.0°
Drops below altitude 10° 00:22:56 10° 1° (N) 2,699 7.4 -22.8°
Sets 00:25:32 0° 7° (N) 3,645 8.5 -22.7°
